Weather History for MKJS - August, 2013

Change the Weather History Date:

Thursday, August 22, 2013

  Actual Average Record
Temperature  
Mean Temperature 83 °F -  
Max Temperature 89 °F 86 °F 93 °F (2001)
Min Temperature 77 °F 77 °F 75 °F (1996)
Cooling Degree Days 18    
Growing Degree Days 33 (Base 50)    
Moisture  
Dew Point 77 °F    
Average Humidity 85    
Maximum Humidity 94    
Minimum Humidity 75    
Precipitation  
Precipitation 0.16 in - - ()
Sea Level Pressure  
Sea Level Pressure 29.90 in    
Wind  
Wind Speed 7 mph ()    
Max Wind Speed 23 mph    
Max Gust Speed -    
Visibility 7.6 miles    
Events Rain , Thunderstorm    
Averages and records for this station are not official NWS values.
T = Trace of Precipitation, MM = Missing Value Source: Averaged Metar Reports

Daily Weather History Graph

Daily Weather History Graph

Search for Another Location

Airport or City:

Trip Planner

Search our weather history database for the weather conditions in past years. The results will help you decide how hot, cold, wet, or windy it might be!

Date:

Astronomy

Aug. 22, 2013 Rise Set
Actual Time 5:55 AM EST 6:33 PM EST
Civil Twilight 5:32 AM EST 6:55 PM EST
Nautical Twilight 5:06 AM EST 7:22 PM EST
Astronomical Twilight 4:39 AM EST 7:48 PM EST
Moon 7:44 PM EST (8/22) 7:18 AM EST (8/22)
Length of Visible Light 13h 23m
Length of Day
12h 38m
Waning Gibbous, 96% of the Moon is Illuminated
Aug 22
Waning Gibbous
Aug 28
Last Quarter
Sep 5
New
Sep 12
First Quarter
Sep 19
Full

Hourly Weather History & Observations

Time (EST) Temp. Heat Index Dew Point Humidity Pressure Visibility Wind Dir Wind Speed Gust Speed Precip Events Conditions
12:00 AM 78.8 °F - 77.0 °F 94% 29.92 in 6.2 mi SE 3.5 mph - N/A   Mostly Cloudy
1:00 AM 80 °F - 74 °F 79% 29.91 in 12 mi East 6.9 mph - -   Mostly Cloudy
1:00 AM 80.6 °F 86.2 °F 75.2 °F 84% 29.89 in 6.2 mi East 6.9 mph - N/A   Mostly Cloudy
2:00 AM 78.8 °F - 75.2 °F 89% 29.89 in 6.2 mi SE 6.9 mph - N/A   Mostly Cloudy
3:00 AM 78.8 °F - 73.4 °F 83% 29.89 in 6.2 mi East 5.8 mph - N/A   Mostly Cloudy
4:00 AM 78 °F - 74 °F 85% 29.89 in 12 mi East 3.5 mph - -   Mostly Cloudy
4:00 AM 77.0 °F - 75.2 °F 94% 29.89 in 6.2 mi East 3.5 mph - N/A   Mostly Cloudy
5:00 AM 77.0 °F - 75.2 °F 94% 29.86 in 6.2 mi East 5.8 mph - N/A Thunderstorm Mostly Cloudy
6:00 AM 78.8 °F - 75.2 °F 89% 29.89 in 6.2 mi East 2.3 mph - N/A   Scattered Clouds
7:00 AM 80.6 °F 86.2 °F 75.2 °F 84% 29.89 in 6.2 mi East 4.6 mph - N/A   Scattered Clouds
8:00 AM 82.4 °F 89.5 °F 75.2 °F 79% 29.92 in 6.2 mi ENE 4.6 mph - N/A   Mostly Cloudy
9:00 AM 84.2 °F 94.1 °F 77.0 °F 79% 29.95 in 6.2 mi East 9.2 mph - N/A   Mostly Cloudy
10:00 AM 85 °F - 78 °F 75% 29.95 in 15 mi East 13.8 mph - -   Mostly Cloudy
10:00 AM 86.0 °F 99.3 °F 78.8 °F 79% 29.95 in 6.2 mi East 13.8 mph - N/A   Mostly Cloudy
11:00 AM 86.0 °F 99.3 °F 78.8 °F 79% 29.92 in 6.2 mi ENE 13.8 mph - N/A   Scattered Clouds
12:00 PM 86.0 °F 99.3 °F 78.8 °F 79% 29.89 in 6.2 mi ENE 16.1 mph - N/A   Scattered Clouds
1:00 PM 83 °F - 78 °F 82% 29.90 in 16 mi East 23.0 mph - - Rain Heavy Rain Showers
1:00 PM 82.4 °F 92.4 °F 78.8 °F 89% 29.89 in 6.2 mi East 23.0 mph - N/A Rain Rain Showers
1:10 PM 82.4 °F 92.4 °F 78.8 °F 89% 29.89 in - East 16.1 mph - N/A Rain , Thunderstorm Thunderstorms and Rain
2:00 PM 80.6 °F 87.1 °F 77.0 °F 89% 29.89 in 6.2 mi ESE 5.8 mph - N/A Rain , Thunderstorm Thunderstorms and Rain
3:00 PM 80.6 °F 88.1 °F 78.8 °F 94% 29.86 in 6.2 mi SSE 9.2 mph - N/A Rain Light Rain Showers
4:00 PM 82.4 °F 92.4 °F 78.8 °F 89% 29.86 in 6.2 mi ESE 8.1 mph - N/A   Mostly Cloudy
5:00 PM 84.2 °F 96.1 °F 78.8 °F 84% 29.86 in 6.2 mi ESE 8.1 mph - N/A   Partly Cloudy
6:00 PM 82.4 °F 90.9 °F 77.0 °F 84% 29.86 in 6.2 mi ESE 6.9 mph - N/A   Partly Cloudy
7:00 PM 82 °F - 78 °F 83% 29.89 in 16 mi ESE 9.2 mph - - Rain Light Rain Showers
7:00 PM 82.4 °F 90.9 °F 77.0 °F 84% 29.89 in 6.2 mi ESE 9.2 mph - N/A Rain , Thunderstorm Light Rain Showers
8:00 PM 82.4 °F 90.9 °F 77.0 °F 84% 29.86 in 6.2 mi East 8.1 mph - N/A Thunderstorm Partly Cloudy
9:00 PM 80.6 °F 86.2 °F 75.2 °F 84% 29.89 in 6.2 mi SE 6.9 mph - N/A Thunderstorm Partly Cloudy
10:00 PM 80.6 °F 86.2 °F 75.2 °F 84% 29.89 in 6.2 mi ESE 5.8 mph - N/A   Partly Cloudy
11:00 PM 80.6 °F 86.2 °F 75.2 °F 84% 29.92 in 6.2 mi SSE 5.8 mph - N/A Thunderstorm Partly Cloudy